Time,TemperatureF,DewpointF,PressureIn,WindDirection,WindDirectionDegrees,WindSpeedMPH,WindSpeedGustMPH,Humidity,HourlyPrecipIn,Conditions,Clouds,dailyrainin,SoftwareType,DateUTC
2013-01-20 00:01:00,12.7,4.0,0.00,WSW,254,14.0,-999.0,67,-99.99,,,0.00,weatherlink.com 1.10,2013-01-20 06:01:00,
2013-01-20 00:16:00,11.9,2.0,0.00,NNW,327,11.0,-999.0,65,-99.99,,,0.00,weatherlink.com 1.10,2013-01-20 06:16:00,
2013-01-20 00:31:00,11.3,2.0,0.00,NW,318,9.0,-999.0,67,-99.99,,,0.00,weatherlink.com 1.10,2013-01-20 06:31:00,
2013-01-20 00:46:00,10.9,2.0,0.00,WNW,292,1.0,-999.0,67,-99.99,,,0.00,weatherlink.com 1.10,2013-01-20 06:46:00,
2013-01-20 01:01:00,10.3,2.0,0.00,WNW,290,7.0,-999.0,70,-99.99,,,0.00,weatherlink.com 1.10,2013-01-20 07:01:00,
2013-01-20 01:16:00,10.1,2.0,0.00,WNW,300,11.0,-999.0,71,-99.99,,,0.00,weatherlink.com 1.10,2013-01-20 07:16:00,
2013-01-20 01:31:00,9.9,2.0,0.00,WNW,288,10.0,-999.0,71,-99.99,,,0.00,weatherlink.com 1.10,2013-01-20 07:31:00,
2013-01-20 01:46:00,9.9,2.0,0.00,NW,325,2.0,-999.0,70,-99.99,,,0.00,weatherlink.com 1.10,2013-01-20 07:46:00,
2013-01-20 02:01:00,9.7,2.0,0.00,West,280,9.0,-999.0,70,-99.99,,,0.00,weatherlink.com 1.10,2013-01-20 08:01:00,
2013-01-20 02:16:00,9.2,1.0,0.00,NW,316,4.0,-999.0,69,-99.99,,,0.00,weatherlink.com 1.10,2013-01-20 08:16:00,
2013-01-20 02:32:00,8.9,1.0,0.00,NNW,340,4.0,-999.0,69,-99.99,,,0.00,weatherlink.com 1.10,2013-01-20 08:32:00,
2013-01-20 02:46:00,8.7,0.0,0.00,WNW,288,2.0,-999.0,68,-99.99,,,0.00,weatherlink.com 1.10,2013-01-20 08:46:00,
2013-01-20 03:01:00,8.4,0.0,0.00,WNW,286,12.0,-999.0,68,-99.99,,,0.00,weatherlink.com 1.10,2013-01-20 09:01:00,
2013-01-20 03:16:00,8.0,-1.0,0.00,WNW,300,1.0,-999.0,68,-99.99,,,0.00,weatherlink.com 1.10,2013-01-20 09:16:00,
2013-01-20 03:46:00,7.6,-1.0,0.00,WNW,301,4.0,-999.0,69,-99.99,,,0.00,weatherlink.com 1.10,2013-01-20 09:46:00,
2013-01-20 04:01:00,7.6,0.0,0.00,West,263,5.0,-999.0,71,-99.99,,,0.00,weatherlink.com 1.10,2013-01-20 10:01:00,
2013-01-20 04:16:00,7.3,0.0,0.00,North,355,6.0,-999.0,71,-99.99,,,0.00,weatherlink.com 1.10,2013-01-20 10:16:00,
2013-01-20 04:31:00,7.2,0.0,0.00,NW,318,2.0,-999.0,72,-99.99,,,0.00,weatherlink.com 1.10,2013-01-20 10:31:00,
2013-01-20 04:46:00,7.1,0.0,0.00,NW,321,0.0,-999.0,72,-99.99,,,0.00,weatherlink.com 1.10,2013-01-20 10:46:00,
2013-01-20 05:01:00,6.8,0.0,0.00,NW,320,6.0,-999.0,73,-99.99,,,0.00,weatherlink.com 1.10,2013-01-20 11:01:00,
2013-01-20 05:16:00,6.6,0.0,0.00,NNW,331,4.0,-999.0,74,-99.99,,,0.00,weatherlink.com 1.10,2013-01-20 11:16:00,
2013-01-20 05:31:00,6.5,0.0,0.00,NW,304,2.0,-999.0,74,-99.99,,,0.00,weatherlink.com 1.10,2013-01-20 11:31:00,
2013-01-20 06:17:00,6.1,0.0,0.00,WNW,296,3.0,-999.0,75,-99.99,,,0.00,weatherlink.com 1.10,2013-01-20 12:17:00,
2013-01-20 06:32:00,6.1,0.0,0.00,NE,49,2.0,-999.0,75,-99.99,,,0.00,weatherlink.com 1.10,2013-01-20 12:32:00,
2013-01-20 06:46:00,6.0,0.0,0.00,NW,317,5.0,-999.0,75,-99.99,,,0.00,weatherlink.com 1.10,2013-01-20 12:46:00,
2013-01-20 07:01:00,6.0,0.0,0.00,NW,304,2.0,-999.0,75,-99.99,,,0.00,weatherlink.com 1.10,2013-01-20 13:01:00,
2013-01-20 07:16:00,5.9,0.0,0.00,NW,308,1.0,-999.0,75,-99.99,,,0.00,weatherlink.com 1.10,2013-01-20 13:16:00,
2013-01-20 07:31:00,5.8,-1.0,0.00,NW,319,1.0,-999.0,75,-99.99,,,0.00,weatherlink.com 1.10,2013-01-20 13:31:00,
2013-01-20 07:46:00,5.7,0.0,0.00,WNW,300,3.0,-999.0,76,-99.99,,,0.00,weatherlink.com 1.10,2013-01-20 13:46:00,
2013-01-20 08:01:00,5.9,0.0,0.00,NW,308,2.0,-999.0,76,-99.99,,,0.00,weatherlink.com 1.10,2013-01-20 14:01:00,
2013-01-20 08:31:00,6.5,0.0,0.00,WNW,292,8.0,-999.0,75,-99.99,,,0.00,weatherlink.com 1.10,2013-01-20 14:31:00,
2013-01-20 08:46:00,7.2,1.0,0.00,West,277,3.0,-999.0,74,-99.99,,,0.00,weatherlink.com 1.10,2013-01-20 14:46:00,
2013-01-20 09:01:00,7.2,0.0,0.00,WNW,284,2.0,-999.0,72,-99.99,,,0.00,weatherlink.com 1.10,2013-01-20 15:01:00,
2013-01-20 09:16:00,7.2,0.0,0.00,NW,306,1.0,-999.0,73,-99.99,,,0.00,weatherlink.com 1.10,2013-01-20 15:16:00,
2013-01-20 09:31:00,8.5,1.0,0.00,NW,307,3.0,-999.0,71,-99.99,,,0.00,weatherlink.com 1.10,2013-01-20 15:31:00,
2013-01-20 09:46:00,7.8,0.0,0.00,NNW,341,0.0,-999.0,71,-99.99,,,0.00,weatherlink.com 1.10,2013-01-20 15:46:00,
2013-01-20 10:01:00,8.0,1.0,0.00,West,269,2.0,-999.0,72,-99.99,,,0.00,weatherlink.com 1.10,2013-01-20 16:01:00,
2013-01-20 10:17:00,8.3,1.0,0.00,NW,315,4.0,-999.0,72,-99.99,,,0.00,weatherlink.com 1.10,2013-01-20 16:17:00,
2013-01-20 10:31:00,8.4,1.0,0.00,NW,321,4.0,-999.0,71,-99.99,,,0.00,weatherlink.com 1.10,2013-01-20 16:31:00,
2013-01-20 10:46:00,8.6,1.0,0.00,West,275,5.0,-999.0,71,-99.99,,,0.00,weatherlink.com 1.10,2013-01-20 16:46:00,
2013-01-20 11:02:00,10.3,2.0,0.00,North,355,4.0,-999.0,70,-99.99,,,0.00,weatherlink.com 1.10,2013-01-20 17:02:00,
2013-01-20 11:17:00,10.0,1.0,0.00,NW,319,3.0,-999.0,67,-99.99,,,0.00,weatherlink.com 1.10,2013-01-20 17:17:00,
2013-01-20 11:32:00,10.4,2.0,0.00,West,276,4.0,-999.0,68,-99.99,,,0.00,weatherlink.com 1.10,2013-01-20 17:32:00,
2013-01-20 11:47:00,11.3,3.0,0.00,West,279,11.0,-999.0,68,-99.99,,,0.00,weatherlink.com 1.10,2013-01-20 17:47:00,
2013-01-20 12:02:00,11.2,2.0,0.00,NW,314,2.0,-999.0,65,-99.99,,,0.00,weatherlink.com 1.10,2013-01-20 18:02:00,
2013-01-20 12:17:00,11.3,2.0,0.00,WNW,294,2.0,-999.0,65,-99.99,,,0.00,weatherlink.com 1.10,2013-01-20 18:17:00,
2013-01-20 12:32:00,11.9,3.0,0.00,WNW,286,6.0,-999.0,66,-99.99,,,0.00,weatherlink.com 1.10,2013-01-20 18:32:00,
2013-01-20 12:47:00,11.7,2.0,0.00,NW,321,12.0,-999.0,64,-99.99,,,0.00,weatherlink.com 1.10,2013-01-20 18:47:00,
2013-01-20 13:02:00,12.3,2.0,0.00,NW,317,3.0,-999.0,63,-99.99,,,0.00,weatherlink.com 1.10,2013-01-20 19:02:00,
2013-01-20 13:17:00,12.8,1.0,0.00,WNW,296,6.0,-999.0,60,-99.99,,,0.00,weatherlink.com 1.10,2013-01-20 19:17:00,
2013-01-20 13:32:00,12.4,1.0,0.00,NW,310,2.0,-999.0,61,-99.99,,,0.00,weatherlink.com 1.10,2013-01-20 19:32:00,
2013-01-20 13:47:00,12.6,1.0,0.00,NNW,334,4.0,-999.0,61,-99.99,,,0.00,weatherlink.com 1.10,2013-01-20 19:47:00,
2013-01-20 14:02:00,13.2,1.0,0.00,NW,304,3.0,-999.0,59,-99.99,,,0.00,weatherlink.com 1.10,2013-01-20 20:02:00,
2013-01-20 14:17:00,13.6,1.0,0.00,West,269,8.0,-999.0,57,-99.99,,,0.00,weatherlink.com 1.10,2013-01-20 20:17:00,
2013-01-20 14:32:00,13.5,2.0,0.00,WNW,300,6.0,-999.0,59,-99.99,,,0.00,weatherlink.com 1.10,2013-01-20 20:32:00,
2013-01-20 14:47:00,14.3,2.0,0.00,NW,310,4.0,-999.0,59,-99.99,,,0.00,weatherlink.com 1.10,2013-01-20 20:47:00,
2013-01-20 15:02:00,13.9,0.0,0.00,North,349,5.0,-999.0,55,-99.99,,,0.00,weatherlink.com 1.10,2013-01-20 21:02:00,
2013-01-20 15:17:00,13.9,0.0,0.00,NNW,333,1.0,-999.0,54,-99.99,,,0.00,weatherlink.com 1.10,2013-01-20 21:17:00,
2013-01-20 15:32:00,14.6,0.0,0.00,West,279,3.0,-999.0,53,-99.99,,,0.00,weatherlink.com 1.10,2013-01-20 21:32:00,
2013-01-20 15:47:00,14.2,0.0,0.00,West,260,9.0,-999.0,53,-99.99,,,0.00,weatherlink.com 1.10,2013-01-20 21:47:00,
2013-01-20 16:02:00,13.6,2.0,0.00,WSW,252,1.0,-999.0,61,-99.99,,,0.00,weatherlink.com 1.10,2013-01-20 22:02:00,
2013-01-20 16:17:00,13.8,1.0,0.00,WNW,303,1.0,-999.0,57,-99.99,,,0.00,weatherlink.com 1.10,2013-01-20 22:17:00,
2013-01-20 16:47:00,12.8,0.0,0.00,WNW,296,1.0,-999.0,57,-99.99,,,0.00,weatherlink.com 1.10,2013-01-20 22:47:00,
2013-01-20 17:02:00,12.4,0.0,0.00,WNW,289,1.0,-999.0,59,-99.99,,,0.00,weatherlink.com 1.10,2013-01-20 23:02:00,
2013-01-20 17:17:00,12.1,1.0,0.00,WSW,249,1.0,-999.0,60,-99.99,,,0.00,weatherlink.com 1.10,2013-01-20 23:17:00,
2013-01-20 17:32:00,11.8,1.0,0.00,WNW,295,2.0,-999.0,61,-99.99,,,0.00,weatherlink.com 1.10,2013-01-20 23:32:00,
2013-01-20 17:47:00,11.6,1.0,0.00,West,269,0.0,-999.0,62,-99.99,,,0.00,weatherlink.com 1.10,2013-01-20 23:47:00,
2013-01-20 18:02:00,11.7,1.0,0.00,West,273,0.0,-999.0,63,-99.99,,,0.00,weatherlink.com 1.10,2013-01-21 00:02:00,
2013-01-20 18:32:00,12.1,1.0,0.00,NW,305,3.0,-999.0,62,-99.99,,,0.00,weatherlink.com 1.10,2013-01-21 00:32:00,
2013-01-20 18:47:00,12.3,1.0,0.00,NNW,332,4.0,-999.0,62,-99.99,,,0.00,weatherlink.com 1.10,2013-01-21 00:47:00,
2013-01-20 19:02:00,12.3,1.0,0.00,NW,304,3.0,-999.0,61,-99.99,,,0.00,weatherlink.com 1.10,2013-01-21 01:02:00,
2013-01-20 19:17:00,12.0,1.0,0.00,West,261,1.0,-999.0,62,-99.99,,,0.00,weatherlink.com 1.10,2013-01-21 01:17:00,
2013-01-20 19:32:00,11.6,1.0,0.00,West,261,1.0,-999.0,63,-99.99,,,0.00,weatherlink.com 1.10,2013-01-21 01:32:00,
2013-01-20 19:47:00,11.0,1.0,0.00,SW,222,2.0,-999.0,65,-99.99,,,0.00,weatherlink.com 1.10,2013-01-21 01:47:00,
2013-01-20 20:02:00,10.7,1.0,0.00,NW,313,2.0,-999.0,66,-99.99,,,0.00,weatherlink.com 1.10,2013-01-21 02:02:00,
2013-01-20 20:17:00,10.4,2.0,0.00,WNW,290,2.0,-999.0,68,-99.99,,,0.00,weatherlink.com 1.10,2013-01-21 02:17:00,
2013-01-20 20:47:00,10.0,2.0,0.00,WSW,253,1.0,-999.0,69,-99.99,,,0.00,weatherlink.com 1.10,2013-01-21 02:47:00,
2013-01-20 21:02:00,9.9,2.0,0.00,WNW,298,2.0,-999.0,69,-99.99,,,0.00,weatherlink.com 1.10,2013-01-21 03:02:00,
2013-01-20 21:17:00,9.9,2.0,0.00,NNW,330,3.0,-999.0,69,-99.99,,,0.00,weatherlink.com 1.10,2013-01-21 03:17:00,
2013-01-20 21:32:00,9.7,1.0,0.00,NW,322,4.0,-999.0,69,-99.99,,,0.00,weatherlink.com 1.10,2013-01-21 03:32:00,
2013-01-20 21:47:00,9.4,1.0,0.00,WSW,256,1.0,-999.0,70,-99.99,,,0.00,weatherlink.com 1.10,2013-01-21 03:47:00,
2013-01-20 22:03:00,9.3,1.0,0.00,WNW,293,1.0,-999.0,70,-99.99,,,0.00,weatherlink.com 1.10,2013-01-21 04:03:00,
2013-01-20 22:17:00,9.4,2.0,0.00,WNW,289,5.0,-999.0,71,-99.99,,,0.00,weatherlink.com 1.10,2013-01-21 04:17:00,
2013-01-20 22:32:00,9.5,2.0,0.00,WNW,290,6.0,-999.0,71,-99.99,,,0.00,weatherlink.com 1.10,2013-01-21 04:32:00,
2013-01-20 22:47:00,9.4,2.0,0.00,WNW,291,4.0,-999.0,72,-99.99,,,0.00,weatherlink.com 1.10,2013-01-21 04:47:00,
2013-01-20 23:02:00,9.2,2.0,0.00,WNW,291,2.0,-999.0,73,-99.99,,,0.00,weatherlink.com 1.10,2013-01-21 05:02:00,
2013-01-20 23:17:00,9.2,2.0,0.00,WNW,286,4.0,-999.0,73,-99.99,,,0.00,weatherlink.com 1.10,2013-01-21 05:17:00,
2013-01-20 23:32:00,9.4,2.0,0.00,NW,304,2.0,-999.0,73,-99.99,,,0.00,weatherlink.com 1.10,2013-01-21 05:32:00,
2013-01-20 23:47:00,9.6,3.0,0.00,NW,309,10.0,-999.0,74,-99.99,,,0.00,weatherlink.com 1.10,2013-01-21 05:47:00,